• Em Portugal
  • Lista de países
  • Para 7 dias
  • Temperatura da água
  • Mapas de satélite
  • Mapa do tempo
  • Widgets de tempo
  • user-avatar
    Iniciar Sessão

    Previsão horária em Manama

    Hoje, 23 Janeiro, Terça-feira

    Tempo Temperatura Precipitação Vento Pressão Humidade
    00:00 +15°C° 0 mm 1 m/s 763 mmHg 69%
    01:00 +15°C° 0 mm 1 m/s 763 mmHg 69%
    02:00 +15°C° 0 mm 1 m/s 763 mmHg 69%
    03:00 +14°C° 0 mm 1 m/s 762 mmHg 72%
    04:00 +14°C° 0 mm 1 m/s 763 mmHg 70%
    05:00 +14°C° 0 mm 1 m/s 763 mmHg 69%
    06:00 +14°C° 0 mm 1 m/s 763 mmHg 68%
    07:00 +16°C° 0 mm 2 m/s 763 mmHg 62%
    08:00 +17°C° 0 mm 2 m/s 763 mmHg 56%
    09:00 +18°C° 0 mm 2 m/s 763 mmHg 50%
    10:00 +19°C° 0 mm 3 m/s 763 mmHg 45%
    11:00 +20°C° 0 mm 3 m/s 762 mmHg 40%
    12:00 +21°C° 0 mm 3 m/s 762 mmHg 36%
    13:00 +21°C° 0 mm 3 m/s 761 mmHg 34%
    14:00 +22°C° 0 mm 3 m/s 761 mmHg 33%
    15:00 +22°C° 0 mm 3 m/s 761 mmHg 32%
    16:00 +22°C° 0 mm 4 m/s 761 mmHg 37%
    17:00 +21°C° 0 mm 4 m/s 761 mmHg 41%
    18:00 +20°C° 0 mm 4 m/s 760 mmHg 46%
    19:00 +20°C° 0 mm 4 m/s 761 mmHg 46%
    20:00 +20°C° 0 mm 5 m/s 761 mmHg 47%
    21:00 +20°C° 0 mm 5 m/s 761 mmHg 48%
    22:00 +20°C° 0 mm 5 m/s 761 mmHg 47%
    23:00 +20°C° 0 mm 6 m/s 761 mmHg 47%

    Amanhã, 24 Janeiro, Quarta-feira

    Tempo Temperatura Precipitação Vento Pressão Humidade
    00:00 +20°C° 0 mm 6 m/s 760 mmHg 47%
    01:00 +20°C° 0 mm 6 m/s 760 mmHg 44%
    02:00 +19°C° 0 mm 5 m/s 760 mmHg 40%
    03:00 +19°C° 0 mm 5 m/s 760 mmHg 37%
    04:00 +19°C° 0 mm 4 m/s 760 mmHg 34%
    05:00 +19°C° 0 mm 4 m/s 760 mmHg 31%
    06:00 +19°C° 0 mm 4 m/s 761 mmHg 28%
    07:00 +19°C° 0 mm 4 m/s 761 mmHg 26%
    08:00 +20°C° 0 mm 5 m/s 761 mmHg 25%
    09:00 +21°C° 0 mm 5 m/s 762 mmHg 24%
    10:00 +22°C° 0 mm 5 m/s 761 mmHg 22%
    11:00 +25°C° 0 mm 4 m/s 761 mmHg 21%
    12:00 +26°C° 0 mm 4 m/s 761 mmHg 19%
    13:00 +26°C° 0 mm 3 m/s 761 mmHg 19%
    14:00 +27°C° 0 mm 3 m/s 760 mmHg 19%
    15:00 +27°C° 0 mm 2 m/s 760 mmHg 19%
    16:00 +26°C° 0 mm 2 m/s 760 mmHg 21%
    17:00 +25°C° 0 mm 3 m/s 760 mmHg 23%
    18:00 +25°C° 0 mm 3 m/s 761 mmHg 25%
    19:00 +24°C° 0 mm 3 m/s 761 mmHg 26%
    20:00 +24°C° 0 mm 3 m/s 761 mmHg 27%
    21:00 +22°C° 0 mm 3 m/s 761 mmHg 28%
    22:00 +23°C° 0 mm 2 m/s 761 mmHg 30%
    23:00 +21°C° 0 mm 2 m/s 761 mmHg 31%

    Depois de amanhã, 25 Janeiro, Quinta-feira

    Tempo Temperatura Precipitação Vento Pressão Humidade
    00:00 +21°C° 0 mm 1 m/s 761 mmHg 33%
    01:00 +21°C° 0 mm 1 m/s 761 mmHg 35%
    02:00 +21°C° 0 mm 1 m/s 761 mmHg 37%
    03:00 +20°C° 0 mm 1 m/s 760 mmHg 38%
    04:00 +20°C° 0 mm 1 m/s 761 mmHg 40%
    05:00 +19°C° 0 mm 2 m/s 761 mmHg 41%
    06:00 +19°C° 0 mm 2 m/s 761 mmHg 43%
    07:00 +20°C° 0 mm 2 m/s 761 mmHg 40%
    08:00 +23°C° 0 mm 2 m/s 762 mmHg 36%
    09:00 +24°C° 0 mm 2 m/s 762 mmHg 33%
    10:00 +25°C° 0 mm 2 m/s 762 mmHg 30%
    11:00 +26°C° 0 mm 2 m/s 761 mmHg 26%
    12:00 +26°C° 0 mm 2 m/s 761 mmHg 22%
    13:00 +27°C° 0 mm 2 m/s 760 mmHg 21%
    14:00 +27°C° 0 mm 2 m/s 760 mmHg 19%
    15:00 +27°C° 0 mm 2 m/s 759 mmHg 18%
    16:00 +26°C° 0 mm 2 m/s 760 mmHg 20%
    17:00 +26°C° 0 mm 3 m/s 760 mmHg 22%
    18:00 +25°C° 0 mm 3 m/s 760 mmHg 24%
    19:00 +24°C° 0 mm 3 m/s 760 mmHg 27%
    20:00 +23°C° 0 mm 4 m/s 760 mmHg 31%
    21:00 +23°C° 0 mm 4 m/s 760 mmHg 35%
    22:00 +23°C° 0 mm 4 m/s 760 mmHg 39%
    23:00 +22°C° 0 mm 4 m/s 760 mmHg 42%

    26 Janeiro, Sexta-feira

    Tempo Temperatura Precipitação Vento Pressão Humidade
    00:00 +22°C° 0 mm 4 m/s 760 mmHg 46%
    01:00 +22°C° 0 mm 4 m/s 760 mmHg 46%
    02:00 +21°C° 0 mm 4 m/s 759 mmHg 46%
    03:00 +21°C° 0 mm 4 m/s 759 mmHg 45%
    04:00 +21°C° 0 mm 4 m/s 759 mmHg 46%
    05:00 +21°C° 0 mm 4 m/s 760 mmHg 46%
    06:00 +20°C° 0 mm 4 m/s 760 mmHg 46%
    07:00 +21°C° 0 mm 4 m/s 760 mmHg 42%
    08:00 +22°C° 0 mm 5 m/s 761 mmHg 38%
    09:00 +23°C° 0 mm 5 m/s 761 mmHg 34%
    10:00 +25°C° 0 mm 5 m/s 761 mmHg 30%
    11:00 +27°C° 0 mm 5 m/s 760 mmHg 26%
    12:00 +28°C° 0 mm 4 m/s 760 mmHg 22%
    13:00 +29°C° 0 mm 4 m/s 759 mmHg 21%
    14:00 +29°C° 0 mm 4 m/s 759 mmHg 20%
    15:00 +30°C° 0 mm 4 m/s 758 mmHg 20%
    16:00 +29°C° 0 mm 4 m/s 758 mmHg 21%
    17:00 +28°C° 0 mm 4 m/s 758 mmHg 22%
    18:00 +27°C° 0 mm 5 m/s 758 mmHg 23%
    19:00 +27°C° 0 mm 5 m/s 759 mmHg 27%
    20:00 +26°C° 0 mm 5 m/s 759 mmHg 30%
    21:00 +24°C° 0 mm 6 m/s 759 mmHg 34%
    22:00 +25°C° 0 mm 5 m/s 759 mmHg 37%
    23:00 +23°C° 0 mm 5 m/s 759 mmHg 40%

    27 Janeiro, Sábado

    Tempo Temperatura Precipitação Vento Pressão Humidade
    00:00 +22°C° 0 mm 4 m/s 759 mmHg 44%
    01:00 +22°C° 0 mm 4 m/s 759 mmHg 42%
    02:00 +22°C° 0 mm 3 m/s 759 mmHg 41%
    03:00 +22°C° 0 mm 3 m/s 758 mmHg 40%
    04:00 +21°C° 0 mm 3 m/s 759 mmHg 38%
    05:00 +21°C° 0 mm 3 m/s 759 mmHg 37%
    06:00 +21°C° 0 mm 3 m/s 759 mmHg 35%
    07:00 +22°C° 0 mm 3 m/s 759 mmHg 33%
    08:00 +24°C° 0 mm 3 m/s 760 mmHg 32%
    09:00 +24°C° 0 mm 3 m/s 760 mmHg 30%
    10:00 +25°C° 0 mm 4 m/s 760 mmHg 28%
    11:00 +26°C° 0 mm 4 m/s 759 mmHg 26%
    12:00 +27°C° 0 mm 4 m/s 759 mmHg 25%
    13:00 +27°C° 0 mm 6 m/s 759 mmHg 26%
    14:00 +27°C° 0 mm 7 m/s 759 mmHg 28%
    15:00 +26°C° 0 mm 9 m/s 758 mmHg 29%
    16:00 +24°C° 0 mm 9 m/s 759 mmHg 36%
    17:00 +22°C° 0 mm 9 m/s 759 mmHg 44%
    18:00 +21°C° 0 mm 10 m/s 760 mmHg 52%
    19:00 +19°C° 0 mm 10 m/s 760 mmHg 52%
    20:00 +19°C° 0 mm 10 m/s 761 mmHg 52%
    21:00 +18°C° 0 mm 10 m/s 761 mmHg 52%
    22:00 +18°C° 0 mm 10 m/s 761 mmHg 47%
    23:00 +18°C° 0 mm 11 m/s 762 mmHg 42%

    28 Janeiro, Domingo

    Tempo Temperatura Precipitação Vento Pressão Humidade
    00:00 +18°C° 0 mm 11 m/s 762 mmHg 37%
    01:00 +17°C° 0 mm 11 m/s 761 mmHg 36%
    02:00 +17°C° 0 mm 11 m/s 761 mmHg 35%
    03:00 +16°C° 0 mm 11 m/s 761 mmHg 34%
    04:00 +16°C° 0 mm 11 m/s 762 mmHg 35%
    05:00 +16°C° 0 mm 11 m/s 762 mmHg 36%
    06:00 +16°C° 0 mm 11 m/s 762 mmHg 38%
    07:00 +16°C° 0 mm 10 m/s 763 mmHg 37%
    08:00 +17°C° 0 mm 10 m/s 763 mmHg 37%
    09:00 +17°C° 0 mm 10 m/s 764 mmHg 37%
    10:00 +18°C° 0 mm 10 m/s 763 mmHg 35%
    11:00 +18°C° 0 mm 10 m/s 763 mmHg 34%
    12:00 +19°C° 0 mm 10 m/s 763 mmHg 33%
    13:00 +19°C° 0 mm 10 m/s 763 mmHg 34%
    14:00 +19°C° 0 mm 10 m/s 762 mmHg 35%
    15:00 +19°C° 0 mm 10 m/s 762 mmHg 36%
    16:00 +19°C° 0 mm 10 m/s 762 mmHg 38%
    17:00 +18°C° 0 mm 10 m/s 763 mmHg 40%
    18:00 +17°C° 0 mm 9 m/s 763 mmHg 43%
    19:00 +17°C° 0 mm 9 m/s 763 mmHg 45%
    20:00 +17°C° 0 mm 9 m/s 763 mmHg 46%
    21:00 +17°C° 0 mm 9 m/s 764 mmHg 48%
    22:00 +16°C° 0 mm 9 m/s 763 mmHg 48%
    23:00 +16°C° 0 mm 8 m/s 763 mmHg 48%
    Mostrar mais